{"data":{"norad_id":68679,"epoch":"2026-09-18T03:24:27.306144Z","epoch_age_seconds":247517,"freshness":"STALE","line1":"1 68679U 26077T   26261.14198271  .00006606  00000+0  20677-3 0  9990","line2":"2 68679  97.2868 131.0992 0002175  67.1515 292.9957 15.33445165 24650","mean_motion":15.33445165,"eccentricity":0.0002175,"inclination_deg":97.2868,"raan_deg":131.0992,"arg_perigee_deg":67.1515,"mean_anomaly_deg":292.9957,"bstar":0.00020677,"rev_number":2465,"period_min":93.906194552448,"perigee_km":464.05418322309,"apogee_km":467.03118388544,"semimajor_km":6843.6796835543,"source":"CELESTRAK","updated_at":"2026-09-20T09:00:43.953537Z"}}